Total_Precipitation_Accumulation
0.00 0.02 0.07 0.09 0.10 0.10 0.18 0.26 0.23 0.17 0.20 0.18 0.10 0.06 0.07 0.09 0.12 0.10 0.07 0.06 0.05 0.06 0.08 0.11 0.16 0.21 0.20 0.18 0.21 0.28 0.32 0.30 0.27 0.26 0.32 0.37 0.36 0.34 0.34 0.35 0.35 0.46 0.27
0.00 0.01 0.06 0.10 0.11 0.11 0.14 0.19 0.25 0.22 0.29 0.23 0.14 0.09 0.08 0.09 0.09 0.06 0.04 0.03 0.04 0.05 0.07 0.09 0.15 0.18 0.20 0.25 0.26 0.30 0.28 0.23 0.19 0.22 0.35 0.43 0.39 0.33 0.29 0.28 0.37 0.45 0.31
0.00 0.00 0.03 0.10 0.10 0.09 0.14 0.18 0.25 0.28 0.37 0.32 0.24 0.15 0.11 0.09 0.10 0.07 0.05 0.06 0.07 0.05 0.05 0.08 0.19 0.21 0.21 0.28 0.30 0.28 0.24 0.16 0.14 0.19 0.36 0.65 0.50 0.33 0.29 0.36 0.49 0.33 0.29
0.00 0.00 0.03 0.11 0.09 0.09 0.14 0.22 0.33 0.34 0.45 0.45 0.26 0.13 0.07 0.09 0.16 0.14 0.12 0.22 0.11 0.03 0.03 0.07 0.16 0.21 0.20 0.24 0.29 0.25 0.24 0.23 0.24 0.23 0.46 0.67 0.69 0.46 0.43 0.50 0.52 0.40 0.38
0.00 0.01 0.08 0.16 0.12 0.11 0.13 0.25 0.35 0.39 0.47 0.41 0.20 0.06 0.04 0.11 0.19 0.22 0.24 0.27 0.07 0.02 0.02 0.04 0.12 0.17 0.17 0.16 0.17 0.15 0.16 0.23 0.34 0.41 0.60 0.70 0.71 0.54 0.51 0.53 0.49 0.39 0.43
0.00 0.02 0.07 0.15 0.15 0.13 0.14 0.26 0.35 0.42 0.47 0.40 0.17 0.06 0.06 0.14 0.17 0.17 0.25 0.14 0.05 0.03 0.01 0.02 0.07 0.11 0.11 0.12 0.14 0.12 0.16 0.20 0.26 0.41 0.61 0.72 0.63 0.46 0.47 0.50 0.50 0.50 0.42
0.01 0.02 0.05 0.10 0.13 0.14 0.16 0.31 0.41 0.43 0.44 0.35 0.16 0.09 0.07 0.09 0.10 0.14 0.19 0.06 0.03 0.01 0.01 0.02 0.05 0.06 0.08 0.09 0.10 0.10 0.11 0.10 0.15 0.25 0.41 0.65 0.50 0.36 0.37 0.44 0.49 0.52 0.43
0.00 0.01 0.03 0.06 0.11 0.16 0.21 0.33 0.39 0.40 0.38 0.32 0.17 0.09 0.08 0.08 0.08 0.14 0.14 0.04 0.02 0.00 0.00 0.01 0.04 0.07 0.08 0.08 0.08 0.11 0.11 0.08 0.06 0.11 0.23 0.40 0.40 0.36 0.32 0.42 0.52 0.49 0.43
0.01 0.01 0.02 0.05 0.08 0.17 0.28 0.34 0.38 0.39 0.38 0.32 0.19 0.12 0.08 0.08 0.07 0.10 0.07 0.02 0.00 0.00 0.00 0.00 0.03 0.04 0.04 0.06 0.08 0.10 0.09 0.07 0.04 0.07 0.12 0.23 0.27 0.26 0.28 0.40 0.53 0.54 0.48
0.01 0.00 0.01 0.03 0.07 0.11 0.15 0.23 0.32 0.36 0.36 0.34 0.22 0.14 0.10 0.08 0.05 0.05 0.02 0.00 0.00 0.00 0.00 0.01 0.02 0.01 0.02 0.05 0.04 0.06 0.06 0.04 0.06 0.09 0.13 0.14 0.15 0.16 0.18 0.22 0.29 0.32 0.34
0.01 0.00 0.01 0.01 0.02 0.04 0.07 0.10 0.20 0.29 0.33 0.28 0.21 0.13 0.11 0.12 0.06 0.04 0.02 0.00 0.00 0.00 0.01 0.02 0.03 0.02 0.01 0.02 0.02 0.04 0.03 0.04 0.07 0.09 0.12 0.11 0.09 0.10 0.11 0.13 0.16 0.18 0.21
0.02 0.01 0.01 0.01 0.01 0.02 0.04 0.15 0.27 0.23 0.18 0.15 0.20 0.12 0.11 0.11 0.10 0.05 0.03 0.01 0.00 0.01 0.01 0.02 0.03 0.01 0.00 0.00 0.01 0.02 0.02 0.03 0.06 0.05 0.07 0.11 0.09 0.06 0.06 0.09 0.11 0.12 0.12
0.05 0.03 0.03 0.02 0.02 0.02 0.08 0.19 0.30 0.38 0.28 0.23 0.17 0.09 0.12 0.08 0.03 0.03 0.04 0.03 0.02 0.02 0.00 0.00 0.00 0.00 0.00 0.00 0.00 0.01 0.01 0.02 0.04 0.07 0.08 0.12 0.14 0.13 0.07 0.06 0.08 0.10 0.08
0.11 0.09 0.06 0.04 0.03 0.02 0.02 0.05 0.12 0.16 0.21 0.19 0.10 0.05 0.05 0.04 0.02 0.02 0.03 0.03 0.02 0.00 0.00 0.00 0.00 0.00 0.00 0.00 0.01 0.03 0.02 0.02 0.07 0.12 0.15 0.16 0.22 0.19 0.13 0.07 0.07 0.08 0.08
0.21 0.20 0.14 0.09 0.06 0.04 0.02 0.02 0.02 0.05 0.11 0.14 0.13 0.05 0.03 0.02 0.02 0.02 0.02 0.02 0.01 0.00 0.00 0.00 0.00 0.00 0.00 0.01 0.03 0.03 0.03 0.02 0.06 0.13 0.25 0.33 0.44 0.42 0.35 0.21 0.11 0.10 0.12
0.24 0.31 0.30 0.22 0.16 0.12 0.07 0.03 0.02 0.03 0.06 0.12 0.10 0.03 0.03 0.03 0.02 0.02 0.03 0.03 0.02 0.01 0.00 0.00 0.00 0.00 0.00 0.00 0.01 0.01 0.02 0.02 0.02 0.06 0.18 0.39 0.53 0.48 0.50 0.45 0.30 0.21 0.17
0.27 0.30 0.34 0.34 0.32 0.30 0.23 0.17 0.13 0.11 0.08 0.11 0.12 0.05 0.05 0.04 0.03 0.03 0.04 0.03 0.02 0.01 0.00 0.00 0.00 0.00 0.00 0.00 0.00 0.00 0.00 0.01 0.01 0.01 0.02 0.09 0.21 0.30 0.38 0.39 0.38 0.31 0.24
0.36 0.38 0.42 0.41 0.42 0.42 0.41 0.38 0.32 0.31 0.25 0.21 0.21 0.12 0.10 0.08 0.08 0.07 0.05 0.05 0.04 0.01 0.01 0.01 0.01 0.01 0.00 0.01 0.01 0.01 0.00 0.00 0.01 0.00 0.00 0.01 0.04 0.10 0.21 0.21 0.24 0.26 0.27
0.36 0.37 0.39 0.47 0.50 0.48 0.49 0.53 0.53 0.50 0.44 0.39 0.38 0.32 0.26 0.24 0.25 0.23 0.19 0.15 0.08 0.05 0.05 0.04 0.04 0.02 0.02 0.03 0.02 0.02 0.01 0.00 0.01 0.00 0.01 0.01 0.02 0.04 0.08 0.07 0.08 0.09 0.11
0.30 0.32 0.36 0.43 0.58 0.70 0.74 0.74 0.81 0.73 0.68 0.70 0.75 0.66 0.50 0.51 0.62 0.60 0.58 0.45 0.31 0.23 0.19 0.13 0.13 0.12 0.08 0.06 0.02 0.02 0.01 0.01 0.01 0.00 0.01 0.01 0.01 0.01 0.01 0.01 0.03 0.03 0.02
0.20 0.26 0.31 0.36 0.50 0.63 0.69 0.78 0.93 1.02 1.10 1.18 1.28 1.16 0.95 0.85 0.96 1.03 0.92 0.82 0.69 0.51 0.45 0.39 0.37 0.41 0.25 0.09 0.09 0.10 0.04 0.02 0.01 0.01 0.01 0.01 0.01 0.01 0.00 0.00 0.01 0.01 0.01
0.10 0.14 0.21 0.27 0.38 0.49 0.61 0.81 1.02 1.24 1.25 1.30 1.41 1.42 1.28 1.15 1.19 1.20 1.25 1.18 1.04 0.92 0.82 0.68 0.66 0.75 0.55 0.27 0.26 0.37 0.23 0.11 0.05 0.03 0.02 0.01 0.02 0.02 0.02 0.01 0.00 0.00 0.00
0.06 0.08 0.13 0.23 0.38 0.57 0.77 1.05 1.30 1.51 1.55 1.56 1.46 1.49 1.52 1.54 1.55 1.52 1.51 1.43 1.27 1.07 1.00 1.00 0.99 1.18 0.97 0.61 0.43 0.46 0.41 0.32 0.16 0.05 0.02 0.02 0.02 0.02 0.01 0.01 0.01 0.00 0.00
0.07 0.10 0.17 0.31 0.52 0.77 1.10 1.38 1.59 1.81 1.89 1.71 1.66 1.65 1.60 1.54 1.56 1.59 1.52 1.44 1.32 1.18 1.19 1.17 1.12 1.30 1.32 0.98 0.72 0.53 0.38 0.32 0.27 0.18 0.07 0.04 0.04 0.04 0.01 0.01 0.01 0.01 0.00
0.16 0.23 0.36 0.58 0.87 1.15 1.35 1.50 1.69 1.81 1.81 1.77 1.72 1.66 1.54 1.48 1.42 1.38 1.32 1.33 1.33 1.30 1.30 1.33 1.31 1.45 1.43 1.29 1.01 0.87 0.75 0.57 0.37 0.31 0.27 0.12 0.06 0.04 0.02 0.02 0.02 0.01 0.00
0.29 0.41 0.57 0.75 1.00 1.15 1.25 1.37 1.54 1.66 1.70 1.72 1.68 1.65 1.60 1.52 1.39 1.28 1.23 1.21 1.27 1.33 1.33 1.33 1.35 1.48 1.49 1.44 1.21 1.00 0.91 0.80 0.69 0.61 0.44 0.30 0.15 0.05 0.03 0.03 0.04 0.02 0.01